TimeCST,TemperatureF,Dew PointF,Humidity,Sea Level PressureIn,VisibilityMPH,Wind Direction,Wind SpeedMPH,Gust SpeedMPH,PrecipitationIn,Events,Conditions,WindDirDegrees,DateUTC
12:15 AM,28.4,28.4,100,29.98,1.5,ENE,8.1,-,0.00,,Overcast,60,2013-03-09 06:15:00
12:35 AM,28.4,28.4,100,29.97,1.5,ENE,9.2,-,0.00,,Overcast,60,2013-03-09 06:35:00
12:55 AM,28.4,28.4,100,29.96,1.2,NE,10.4,-,0.00,,Unknown,50,2013-03-09 06:55:00
1:15 AM,28.4,28.4,100,29.95,1.0,NE,9.2,-,0.00,,Overcast,50,2013-03-09 07:15:00
1:35 AM,-9999,-9999,N/A,29.94,1.0,NE,9.2,-,0.00,,Overcast,50,2013-03-09 07:35:00
1:55 AM,30.2,30.2,100,29.93,1.0,NE,9.2,-,0.00,,Overcast,50,2013-03-09 07:55:00
2:15 AM,30.2,30.2,100,29.92,0.8,NE,8.1,-,0.00,,Overcast,50,2013-03-09 08:15:00
2:35 AM,30.2,30.2,100,29.91,0.8,NE,8.1,-,0.00,,Overcast,40,2013-03-09 08:35:00
3:15 AM,30.2,30.2,100,29.90,0.8,NE,9.2,-,0.00,,Overcast,40,2013-03-09 09:15:00
3:35 AM,30.2,30.2,100,29.89,0.8,NNE,9.2,-,0.00,,Overcast,30,2013-03-09 09:35:00
3:55 AM,30.2,30.2,100,29.88,0.8,NNE,9.2,-,0.00,,Overcast,20,2013-03-09 09:55:00
4:15 AM,30.2,30.2,100,29.88,0.8,NNE,10.4,-,0.00,,Overcast,20,2013-03-09 10:15:00
4:35 AM,30.2,30.2,100,29.87,0.8,North,8.1,-,0.00,,Overcast,10,2013-03-09 10:35:00
4:55 AM,30.2,30.2,100,29.87,0.8,North,11.5,-,0.00,,Unknown,10,2013-03-09 10:55:00
5:15 AM,30.2,30.2,100,29.86,0.8,NNE,10.4,-,0.00,,Unknown,30,2013-03-09 11:15:00
5:35 AM,30.2,30.2,100,29.86,1.0,NNE,10.4,-,0.00,,Unknown,20,2013-03-09 11:35:00
6:15 AM,30.2,30.2,100,29.85,0.8,NNE,10.4,-,0.00,,Overcast,20,2013-03-09 12:15:00
6:35 AM,28.4,28.4,100,29.85,0.8,NNE,8.1,-,0.00,,Overcast,30,2013-03-09 12:35:00
6:55 AM,-9999,-9999,N/A,29.87,0.8,North,8.1,-,0.00,,Overcast,10,2013-03-09 12:55:00
7:15 AM,28.4,28.4,100,29.85,0.5,North,9.2,-,0.00,,Overcast,10,2013-03-09 13:15:00
7:35 AM,28.4,28.4,100,29.84,0.5,North,8.1,-,0.00,,Overcast,10,2013-03-09 13:35:00
7:55 AM,28.4,28.4,100,29.83,0.2,North,11.5,-,0.00,,Overcast,10,2013-03-09 13:55:00
8:15 AM,28.4,28.4,100,29.83,0.5,North,12.7,-,0.00,,Unknown,10,2013-03-09 14:15:00
8:35 AM,28.4,28.4,100,29.83,0.5,North,12.7,-,0.00,,Unknown,10,2013-03-09 14:35:00
9:15 AM,28.4,28.4,100,29.83,0.5,North,9.2,-,0.00,,Overcast,350,2013-03-09 15:15:00
9:35 AM,28.4,28.4,100,29.82,0.5,North,10.4,-,0.00,,Overcast,360,2013-03-09 15:35:00
9:55 AM,28.4,28.4,100,29.81,0.8,North,12.7,-,0.00,,Overcast,10,2013-03-09 15:55:00
10:15 AM,28.4,28.4,100,29.81,0.5,North,11.5,-,0.00,,Overcast,360,2013-03-09 16:15:00
10:35 AM,28.4,28.4,100,29.81,0.8,North,15.0,-,0.00,,Overcast,360,2013-03-09 16:35:00
10:55 AM,28.4,28.4,100,29.80,1.0,North,12.7,-,0.00,,Overcast,360,2013-03-09 16:55:00
11:15 AM,28.4,28.4,100,29.81,1.5,North,13.8,-,0.00,,Overcast,360,2013-03-09 17:15:00
11:35 AM,28.4,28.4,100,29.82,2.0,NNW,13.8,-,0.00,,Overcast,340,2013-03-09 17:35:00
11:55 AM,28.4,28.4,100,29.82,3.0,NNW,13.8,-,0.00,,Overcast,340,2013-03-09 17:55:00
12:15 PM,28.4,28.4,100,29.82,3.0,North,16.1,-,0.00,,Unknown,350,2013-03-09 18:15:00
12:35 PM,28.4,28.4,100,29.82,2.5,North,15.0,-,0.00,,Unknown,350,2013-03-09 18:35:00
1:15 PM,28.4,28.4,100,29.81,1.0,North,16.1,20.7,0.00,,Overcast,350,2013-03-09 19:15:00
1:35 PM,30.2,30.2,100,29.80,1.5,North,16.1,-,0.00,,Overcast,350,2013-03-09 19:35:00
1:55 PM,30.2,30.2,100,29.79,1.2,North,13.8,-,0.00,,Overcast,350,2013-03-09 19:55:00
2:15 PM,30.2,30.2,100,29.79,2.0,North,17.3,-,0.00,,Unknown,360,2013-03-09 20:15:00
2:35 PM,30.2,30.2,100,29.79,1.8,North,15.0,-,0.00,,Unknown,360,2013-03-09 20:35:00
2:55 PM,-9999,-9999,N/A,29.80,1.5,North,13.8,-,0.00,,Unknown,350,2013-03-09 20:55:00
3:15 PM,30.2,30.2,100,29.81,0.5,North,17.3,-,0.00,,Overcast,350,2013-03-09 21:15:00
3:35 PM,30.2,30.2,100,29.82,0.8,North,17.3,-,0.00,,Overcast,350,2013-03-09 21:35:00
3:55 PM,32.0,32.0,100,29.82,1.2,North,19.6,24.2,0.00,,Overcast,350,2013-03-09 21:55:00
4:15 PM,32.0,30.2,93,29.83,2.5,North,20.7,26.5,0.00,,Unknown,350,2013-03-09 22:15:00
4:35 PM,32.0,30.2,93,29.83,2.5,NNW,18.4,-,0.00,,Unknown,340,2013-03-09 22:35:00
4:55 PM,32.0,30.2,93,29.83,3.0,North,19.6,-,0.00,,Unknown,350,2013-03-09 22:55:00
5:15 PM,32.0,30.2,93,29.83,7.0,North,19.6,-,0.00,,Unknown,350,2013-03-09 23:15:00
5:35 PM,32.0,30.2,93,29.84,10.0,North,17.3,-,0.00,,Unknown,350,2013-03-09 23:35:00
5:55 PM,32.0,28.4,87,29.85,10.0,NNW,18.4,-,0.00,,Unknown,340,2013-03-09 23:55:00
6:15 PM,32.0,28.4,87,29.86,10.0,NNW,15.0,-,0.00,,Overcast,340,2013-03-10 00:15:00
6:35 PM,32.0,28.4,87,29.86,9.0,NNW,16.1,-,0.00,,Unknown,340,2013-03-10 00:35:00
6:55 PM,32.0,28.4,87,29.88,8.0,NNW,18.4,-,0.00,,Scattered Clouds,330,2013-03-10 00:55:00
7:15 PM,32.0,28.4,87,29.90,8.0,NNW,20.7,24.2,0.00,,Overcast,330,2013-03-10 01:15:00
7:35 PM,30.2,30.2,100,29.91,8.0,NNW,23.0,28.8,0.00,,Overcast,340,2013-03-10 01:35:00
7:55 PM,30.2,30.2,100,29.92,8.0,NNW,25.3,-,0.00,,Unknown,340,2013-03-10 01:55:00
8:15 PM,30.2,30.2,100,29.93,7.0,North,18.4,-,0.00,,Overcast,350,2013-03-10 02:15:00
8:35 PM,30.2,30.2,100,29.94,7.0,North,19.6,25.3,0.00,,Unknown,350,2013-03-10 02:35:00
8:55 PM,30.2,28.4,93,29.95,8.0,North,18.4,-,0.00,,Unknown,350,2013-03-10 02:55:00
9:15 PM,30.2,28.4,93,29.95,10.0,North,20.7,27.6,0.00,,Overcast,350,2013-03-10 03:15:00
9:35 PM,30.2,28.4,93,29.96,9.0,North,24.2,-,0.00,,Overcast,350,2013-03-10 03:35:00
9:55 PM,30.2,28.4,93,29.96,8.0,NNW,24.2,-,0.00,,Overcast,340,2013-03-10 03:55:00
10:15 PM,30.2,28.4,93,29.97,9.0,North,21.9,29.9,0.00,,Overcast,350,2013-03-10 04:15:00
10:35 PM,28.4,26.6,93,29.98,10.0,NNW,28.8,33.4,0.00,,Unknown,340,2013-03-10 04:35:00
10:55 PM,28.4,24.8,86,29.99,10.0,NNW,21.9,29.9,0.00,,Unknown,340,2013-03-10 04:55:00
11:15 PM,26.6,23.0,86,30.00,10.0,North,26.5,32.2,0.00,,Unknown,350,2013-03-10 05:15:00
11:35 PM,26.6,21.2,80,30.01,10.0,NNW,26.5,32.2,0.00,,Overcast,340,2013-03-10 05:35:00
11:55 PM,24.8,21.2,86,30.01,10.0,NNW,23.0,-,0.00,,Unknown,330,2013-03-10 05:55:00